Latest Weather Observations for Hobart

IDT60801

Issued at 5:02 am EDT Friday 30 January 2015 (issued every 30 minutes, with the page automatically refreshed every 10 minutes)

About weather observations | Map of weather stations | Latest weather observations for TAS | Other Formats
Station Details ID: 094029 Name: HOBART (ELLERSLIE ROAD) Lat: -42.89 Lon: 147.33 Height: 50.5 m
Data from the previous 72 hours. | See also: Recent months at Hobart
Date/Time
EDT
Temp
°C
App
Temp
°C
Dew
Point
Rel
Hum
%
Delta-T
°C
Wind Press
QNH
hPa
Press
MSL
hPa
Rain
since 9 am
mm
Dir
 
Spd
km/h
Gust
km/h
Spd
kts
Gust
kts
30/05:00am 11.9 6.3 10.3 90 0.8 SSE 30 48 16 26 1019.9 1019.8 0.8
30/04:51am 12.4 8.0 10.3 87 1.1 SSE 24 48 13 26 1019.9 1019.8 0.4
30/04:30am 11.8 8.0 9.8 87 1.0 S 20 30 11 16 1020.0 1019.9 0.4
30/04:00am 12.1 7.8 9.5 84 1.3 SSW 22 30 12 16 1020.3 1020.2 0.2
30/03:30am 12.5 7.8 9.1 80 1.7 S 24 43 13 23 1020.6 1020.5 0.2
30/03:00am 11.9 8.0 8.5 80 1.7 S 19 26 10 14 1020.9 1020.8 0.2
30/02:30am 12.6 8.1 7.0 68 2.7 SSW 20 28 11 15 1021.2 1021.1 0.2
30/02:00am 12.8 6.3 6.3 64 3.1 S 30 41 16 22 1021.5 1021.4 0.2
30/01:33am 13.2 6.0 5.0 57 3.8 SSE 32 52 17 28 1021.9 1021.8 0.2
30/01:30am 13.1 6.0 5.6 60 3.5 SSE 32 48 17 26 1021.9 1021.8 0.2
30/01:27am 13.2 5.8 5.2 58 3.7 SSE 33 52 18 28 1022.0 1021.9 0.2
30/01:16am 13.1 6.7 5.1 58 3.7 S 28 52 15 28 1022.2 1022.1 0.2
30/01:00am 12.3 7.6 7.6 73 2.3 S 22 39 12 21 1022.3 1022.2 0.2
30/12:40am 12.6 7.5 6.0 64 3.1 S 22 50 12 27 1022.7 1022.6 0.2
30/12:30am 11.8 7.9 8.6 81 1.6 SSW 19 28 10 15 1022.7 1022.6 0.2
30/12:00am 12.2 6.2 7.2 71 2.4 S 28 44 15 24 1023.0 1022.9 0.2
 
Date/Time
EDT
Temp
°C
App
Temp
°C
Dew
Point
Rel
Hum
%
Delta-T
°C
Wind Press
QNH
hPa
Press
MSL
hPa
Rain
since 9 am
mm
Dir
 
Spd
km/h
Gust
km/h
Spd
kts
Gust
kts
29/11:30pm 11.9 7.6 8.0 77 1.9 SSW 20 28 11 15 1023.0 1022.9 0.2
29/11:09pm 12.3 5.6 7.3 71 2.4 SSE 32 50 17 27 1023.2 1023.1 0.2
29/11:00pm 12.5 6.0 8.0 74 2.2 SSE 32 50 17 27 1023.2 1023.1 0.2
29/10:57pm 12.7 6.4 7.6 71 2.5 SSE 30 50 16 27 1023.2 1023.1 0.2
29/10:30pm 11.9 7.4 8.5 80 1.7 S 22 32 12 17 1023.3 1023.2 0.2
29/10:00pm 12.1 7.9 8.2 77 1.9 SSW 20 30 11 16 1023.4 1023.3 0.2
29/09:30pm 12.1 7.8 8.0 76 2.0 SSW 20 26 11 14 1023.6 1023.5 0.2
29/09:00pm 12.0 7.0 7.9 76 2.0 S 24 35 13 19 1023.6 1023.5 0.2
29/08:30pm 12.0 5.5 8.1 77 1.9 SSE 32 50 17 27 1023.8 1023.7 0.2
29/08:09pm 12.9 6.8 6.6 65 3.0 S 28 48 15 26 1023.7 1023.6 0.2
29/08:00pm 12.9 8.0 6.9 67 2.9 S 22 32 12 17 1023.6 1023.5 0.2
29/07:30pm 12.6 7.2 6.3 65 3.0 S 24 39 13 21 1023.6 1023.5 0.2
29/07:00pm 13.2 6.2 6.0 61 3.4 SSE 32 50 17 27 1023.6 1023.5 0.2
29/06:42pm 13.7 6.7 5.9 59 3.7 SSE 32 50 17 27 1023.4 1023.3 0.2
29/06:30pm 14.0 7.3 5.5 56 4.0 SSE 30 43 16 23 1023.5 1023.4 0.2
29/06:00pm 14.0 6.6 4.1 51 4.5 SSE 32 43 17 23 1023.5 1023.5 0.2
29/05:33pm 13.9 7.5 5.4 56 4.0 SSE 28 46 15 25 1023.8 1023.7 0.2
29/05:30pm 13.9 7.3 5.9 58 3.8 SSE 30 46 16 25 1023.9 1023.8 0.2
29/05:00pm 13.8 7.0 7.0 63 3.3 SSE 32 44 17 24 1024.1 1024.0 0.2
29/04:30pm 14.0 7.4 6.0 58 3.8 SSE 30 43 16 23 1024.1 1024.0 0.2
29/04:23pm 14.1 8.1 7.1 62 3.4 SSE 28 46 15 25 1024.2 1024.1 0.2
29/04:00pm 13.7 7.0 7.3 65 3.1 SE 32 43 17 23 1024.4 1024.4 0.2
29/03:30pm 14.9 8.2 5.6 53 4.4 SSE 30 41 16 22 1024.4 1024.4 0.2
29/03:00pm 15.0 8.5 4.7 50 4.8 SSE 28 39 15 21 1024.5 1024.5 0.2
29/02:30pm 15.0 8.9 5.0 51 4.7 SSE 26 37 14 20 1024.8 1024.8 0.0
29/02:00pm 14.5 7.7 5.1 53 4.4 SSE 30 39 16 21 1024.9 1024.9 0.0
29/01:30pm 14.6 8.2 5.0 52 4.5 SSE 28 43 15 23 1025.0 1025.0 0.0
29/01:00pm 14.7 8.5 4.5 50 4.7 SSE 26 35 14 19 1025.1 1025.1 0.0
29/12:30pm 14.7 8.3 3.4 46 5.1 SSE 26 39 14 21 1025.5 1025.5 0.0
29/12:00pm 14.3 8.8 4.0 50 4.7 SSE 22 35 12 19 1025.6 1025.6 0.0
29/11:30am 14.3 8.0 5.6 56 4.1 SSE 28 41 15 22 1025.6 1025.6 0.0
29/11:00am 14.1 7.9 4.3 51 4.5 SSE 26 35 14 19 1025.7 1025.7 0.0
29/10:30am 14.0 8.0 5.2 55 4.1 SSE 26 37 14 20 1025.6 1025.6 0.0
29/10:00am 13.6 9.8 7.5 66 3.0 S 17 22 9 12 1025.7 1025.7 0.0
29/09:30am 12.6 8.3 7.7 72 2.4 SSW 20 28 11 15 1025.6 1025.6 0.0
29/09:00am 11.6 8.4 8.3 80 1.6 SSW 15 20 8 11 1025.6 1025.6 1.2
29/08:30am 11.3 7.7 8.4 82 1.4 SSW 17 24 9 13 1025.6 1025.6 1.2
29/08:00am 11.3 7.1 8.4 82 1.4 S 20 33 11 18 1025.6 1025.6 1.2
29/07:30am 12.3 8.4 6.9 69 2.6 S 17 26 9 14 1025.4 1025.4 1.0
29/07:00am 12.1 6.2 7.6 74 2.2 SSE 28 37 15 20 1025.3 1025.3 1.0
29/06:30am 11.2 6.9 7.7 79 1.7 SSW 20 28 11 15 1025.0 1025.0 1.0
29/06:00am 11.1 6.4 7.8 80 1.6 SSW 22 32 12 17 1024.7 1024.8 1.0
29/05:30am 11.4 6.3 7.7 78 1.8 SSW 24 33 13 18 1024.7 1024.7 1.0
29/05:00am 12.4 7.4 6.5 67 2.8 SSE 22 39 12 21 1024.6 1024.6 1.0
29/04:30am 11.5 7.3 8.4 81 1.5 SSW 20 30 11 16 1024.4 1024.4 1.0
29/04:00am 11.5 7.3 8.4 81 1.5 SSW 20 28 11 15 1024.4 1024.4 1.0
29/03:30am 11.2 7.2 8.1 81 1.5 SSW 19 30 10 16 1024.6 1024.6 1.0
29/03:00am 11.3 7.7 8.4 82 1.4 SSW 17 22 9 12 1024.8 1024.8 1.0
29/02:30am 11.3 7.9 9.1 86 1.1 SSW 17 24 9 13 1024.9 1024.9 1.0
29/02:00am 11.3 7.4 9.3 87 1.0 SSW 20 32 11 17 1025.1 1025.1 0.8
29/01:30am 11.2 7.2 9.0 86 1.1 SSW 20 30 11 16 1025.2 1025.2 0.6
29/01:00am 11.2 7.4 9.2 87 1.0 SSW 19 26 10 14 1025.5 1025.5 0.6
29/12:30am 11.2 7.7 8.8 85 1.2 SSW 17 20 9 11 1025.8 1025.8 0.6
29/12:00am 11.1 6.3 8.9 86 1.1 SSE 24 37 13 20 1026.0 1026.0 0.2
 
Date/Time
EDT
Temp
°C
App
Temp
°C
Dew
Point
Rel
Hum
%
Delta-T
°C
Wind Press
QNH
hPa
Press
MSL
hPa
Rain
since 9 am
mm
Dir
 
Spd
km/h
Gust
km/h
Spd
kts
Gust
kts
28/11:30pm 12.2 7.8 6.5 68 2.7 SSW 19 28 10 15 1025.6 1025.6 0.2
28/11:00pm 12.4 7.6 5.8 64 3.1 SSW 20 28 11 15 1025.8 1025.8 0.2
28/10:30pm 12.4 7.7 5.2 61 3.3 SSW 19 26 10 14 1025.9 1025.9 0.2
28/10:00pm 12.5 7.8 5.1 60 3.4 SSW 19 28 10 15 1026.2 1026.2 0.2
28/09:30pm 12.7 8.0 5.1 60 3.5 SSW 19 26 10 14 1026.2 1026.2 0.2
28/09:00pm 13.1 8.4 5.1 58 3.7 SSW 19 28 10 15 1025.9 1025.9 0.2
28/08:30pm 13.3 7.6 5.1 57 3.8 SSE 24 35 13 19 1025.7 1025.7 0.2
28/08:00pm 13.4 7.9 5.7 59 3.6 SSE 24 39 13 21 1025.6 1025.6 0.2
28/07:30pm 13.7 7.3 5.4 57 3.9 SSE 28 39 15 21 1025.4 1025.4 0.2
28/07:00pm 13.9 7.6 5.6 57 3.9 SSE 28 41 15 22 1025.3 1025.3 0.2
28/06:30pm 14.0 7.5 4.7 53 4.3 SSE 28 37 15 20 1025.4 1025.4 0.2
28/06:00pm 14.4 8.6 4.4 51 4.6 SSE 24 33 13 18 1025.3 1025.3 0.2
28/05:30pm 14.1 7.6 4.5 52 4.4 S 28 39 15 21 1025.1 1025.1 0.2
28/05:00pm 14.3 8.2 4.8 53 4.4 SSE 26 39 14 21 1025.1 1025.1 0.2
28/04:30pm 14.8 8.6 4.4 49 4.8 SSE 26 37 14 20 1025.0 1025.0 0.2
28/04:00pm 14.3 7.4 4.5 51 4.5 SSE 30 44 16 24 1025.0 1025.0 0.2
28/03:30pm 14.7 7.6 3.7 47 5.0 SSE 30 41 16 22 1025.0 1025.0 0.2
28/03:00pm 14.5 7.8 3.4 47 5.0 SSE 28 39 15 21 1025.2 1025.2 0.2
28/02:30pm 14.4 7.8 4.1 50 4.7 SSE 28 39 15 21 1025.2 1025.2 0.2
28/02:00pm 14.3 7.9 3.4 48 4.9 SSE 26 39 14 21 1025.1 1025.1 0.2
28/01:30pm 15.1 10.5 5.4 52 4.6 SSE 19 32 10 17 1025.2 1025.2 0.2
28/01:00pm 13.4 8.5 6.7 64 3.2 S 22 39 12 21 1025.4 1025.4 0.2
28/12:30pm 12.4 6.7 8.3 76 2.0 S 28 43 15 23 1025.5 1025.5 0.0
28/12:15pm 13.0 6.8 7.9 71 2.5 SSE 30 48 16 26 1025.3 1025.3 0.0
28/12:00pm 14.7 9.2 6.1 56 4.1 S 24 37 13 20 1025.2 1025.2 0.0
28/11:30am 13.9 8.1 6.4 60 3.6 SE 26 35 14 19 1025.1 1025.1 0.0
28/11:00am 14.4 8.5 4.1 50 4.7 S 24 33 13 18 1025.0 1025.0 0.0
28/10:30am 13.2 8.9 7.0 66 3.0 SSE 19 28 10 15 1025.1 1025.1 0.0
28/10:00am 12.7 7.4 6.6 66 2.9 S 24 41 13 22 1024.9 1024.9 0.0
28/09:30am 14.1 8.5 5.6 56 4.0 SSW 24 35 13 19 1024.4 1024.4 0.0
28/09:00am 13.5 8.2 6.9 64 3.2 SSW 24 33 13 18 1024.1 1024.0 2.2
28/08:30am 12.9 7.8 7.6 70 2.6 SSW 24 35 13 19 1023.9 1023.8 2.2
28/08:00am 13.1 9.3 7.6 69 2.7 SSW 17 26 9 14 1023.6 1023.5 2.2
28/07:30am 12.3 8.1 7.6 73 2.3 SSW 19 30 10 16 1023.3 1023.2 2.2
28/07:00am 11.2 7.4 7.7 79 1.7 SSW 17 26 9 14 1023.0 1022.9 2.2
28/06:30am 11.5 6.6 6.9 73 2.2 SSW 22 35 12 19 1022.7 1022.6 2.2
28/06:00am 11.7 8.8 6.6 71 2.4 SSW 11 17 6 9 1022.5 1022.4 2.2
28/05:30am 11.7 7.1 5.7 66 2.8 SSW 19 24 10 13 1022.2 1022.1 2.2
28/05:00am 11.1 7.3 5.7 69 2.5 SSW 15 20 8 11 1021.9 1021.8 2.2
28/04:30am 11.2 7.4 5.6 68 2.6 SSW 15 20 8 11 1021.8 1021.7 2.2
28/04:00am 11.0 6.7 5.1 67 2.7 SSW 17 20 9 11 1021.8 1021.7 2.2
28/03:30am 10.7 6.3 4.7 66 2.7 SSW 17 24 9 13 1021.9 1021.8 2.2
28/03:00am 10.5 6.9 5.2 70 2.4 SSW 13 17 7 9 1022.1 1022.0 2.2
28/02:30am 11.0 7.4 5.1 67 2.7 SW 13 20 7 11 1022.2 1022.1 2.2
28/02:00am 11.4 6.3 5.8 68 2.6 SW 22 28 12 15 1022.4 1022.3 2.2
28/01:30am 11.8 7.1 6.0 67 2.7 SW 20 28 11 15 1022.3 1022.2 2.2
28/01:00am 12.0 7.3 6.0 66 2.8 SW 20 33 11 18 1022.3 1022.2 2.2
28/12:30am 12.1 8.0 6.4 68 2.7 SSW 17 26 9 14 1022.2 1022.1 2.2
28/12:00am 12.5 9.2 6.6 67 2.8 SSW 13 22 7 12 1022.2 1022.1 2.2
 
Date/Time
EDT
Temp
°C
App
Temp
°C
Dew
Point
Rel
Hum
%
Delta-T
°C
Wind Press
QNH
hPa
Press
MSL
hPa
Rain
since 9 am
mm
Dir
 
Spd
km/h
Gust
km/h
Spd
kts
Gust
kts
27/11:30pm 12.5 9.4 7.1 69 2.6 SSW 13 19 7 10 1022.1 1022.0 2.2
27/11:00pm 12.5 8.6 7.1 69 2.6 SSW 17 22 9 12 1022.1 1022.0 2.2
27/10:30pm 12.6 8.1 7.0 68 2.7 SSW 20 30 11 16 1021.7 1021.6 2.2
27/10:00pm 12.8 8.3 7.0 68 2.8 SSW 20 30 11 16 1021.5 1021.4 2.2
27/09:30pm 13.1 8.6 6.9 66 3.0 SSW 20 30 11 16 1021.1 1021.0 2.2
27/09:00pm 13.3 8.9 7.3 67 2.9 S 20 33 11 18 1020.8 1020.7 2.2
27/08:30pm 13.6 8.5 7.7 67 2.9 S 24 39 13 21 1020.5 1020.4 2.2
27/08:00pm 13.6 9.6 8.4 71 2.6 S 19 28 10 15 1020.1 1020.0 2.2
27/07:30pm 13.8 9.9 8.8 72 2.5 S 19 33 10 18 1019.7 1019.6 2.2
27/07:00pm 14.1 11.6 9.8 75 2.2 SE 13 28 7 15 1019.5 1019.4 2.2
27/06:30pm 14.1 12.6 10.5 79 1.9 SSE 9 13 5 7 1019.2 1019.1 2.2
27/06:00pm 14.6 11.2 9.1 69 2.8 S 17 20 9 11 1019.0 1018.9 2.2
27/05:30pm 14.8 11.5 8.2 64 3.3 SSE 15 20 8 11 1018.9 1018.8 2.2
27/05:00pm 14.7 11.8 9.7 72 2.6 SSW 15 22 8 12 1018.6 1018.5 2.2
27/04:30pm 15.6 13.1 11.1 74 2.4 S 15 22 8 12 1018.6 1018.5 2.0
27/04:00pm 13.7 10.2 10.8 83 1.5 SSW 20 30 11 16 1018.6 1018.5 1.8
27/03:30pm 15.6 13.0 7.6 59 4.0 SE 11 17 6 9 1018.2 1018.1 0.6
27/03:00pm 15.3 11.8 8.8 65 3.3 SE 17 20 9 11 1018.0 1017.9 0.4
27/02:30pm 15.9 12.7 8.4 61 3.8 ESE 15 19 8 10 1017.9 1017.8 0.4
27/02:00pm 14.5 12.0 8.3 66 3.1 SE 11 17 6 9 1018.1 1018.0 0.4
27/01:30pm 14.4 11.4 9.1 70 2.7 SE 15 20 8 11 1018.3 1018.2 0.0
27/01:00pm 15.8 12.5 6.3 53 4.6 E 13 17 7 9 1018.1 1018.0 0.0
27/12:30pm 15.6 11.5 4.5 47 5.2 SSE 15 20 8 11 1018.0 1017.9 0.0
27/12:00pm 15.1 12.3 5.1 51 4.7 SE 9 13 5 7 1017.9 1017.8 0.0
27/11:30am 15.4 11.9 5.5 51 4.7 SE 13 17 7 9 1018.0 1017.9 0.0
27/11:00am 14.8 10.8 5.0 52 4.6 SE 15 22 8 12 1018.2 1018.1 0.0
27/10:30am 15.7 12.5 4.9 48 5.1 ESE 11 17 6 9 1018.1 1018.0 0.0
27/10:00am 16.3 13.3 6.0 50 5.0 NE 11 13 6 7 1017.9 1017.8 0.0
27/09:30am 16.4 13.4 6.1 50 5.0 N 11 17 6 9 1017.9 1017.8 0.0
27/09:00am 15.3 12.0 6.4 55 4.3 N 13 20 7 11 1017.8 1017.7 0.0
27/08:30am 14.0 11.9 6.5 60 3.6 NNW 7 11 4 6 1017.8 1017.7 0.0
27/08:00am 12.7 10.7 6.2 64 3.1 N 6 11 3 6 1017.7 1017.6 0.0
27/07:30am 12.4 11.2 6.3 66 2.9 NNW 2 7 1 4 1017.4 1017.3 0.0
27/07:00am 12.0 10.0 7.2 72 2.3 WSW 7 11 4 6 1017.0 1016.9 0.0
27/06:30am 11.7 8.3 5.7 66 2.8 NNW 13 17 7 9 1016.7 1016.6 0.0
27/06:00am 11.8 9.7 6.5 70 2.5 NW 7 11 4 6 1016.5 1016.4 0.0
27/05:30am 12.0 11.0 7.5 74 2.2 NW 2 6 1 3 1016.4 1016.3 0.0

Other Formats:

Comma delimited format used in spreadsheet applications
http://www.bom.gov.au/fwo/IDT60801/IDT60801.94970.axf

JavaScript Object Notation format (JSON) in row-major order
http://www.bom.gov.au/fwo/IDT60801/IDT60801.94970.json